Location: Cheyres
(46.8153°N, 6.7877°E)
Time: 00:33:35
(UTC+00:00)

ATLAS 2AS CENTAUR R/B - Pass Details

Date: 11 May 2021
Orbit: 949 x 1263 km, 63.7° (Epoch: 07 May)

Event Time Altitude Azimuth Distance (km) Brightness Sun altitude
Rises 21:23:07 0° 320° (NW) 4,120 7.4 -19.1°
Reaches altitude 10° 21:25:59 10° 323° (NW) 3,114 6.4 -19.4°
Maximum altitude 21:33:24 71° 47° (NE) 1,178 2.9 -20.0°
Enters shadow 21:37:04 30° 125° (SE) 1,824 3.4 -20.3°
